Simultaneous Nadir Overpasses (SNOs) Predictions

Prediction of SNOs between GOES-14 and NOAA-20 Satellite Orbit:

Table of predicted SNOs for the next 14.0 days since TLE Epoch: 7/5/2019
Index Date Time (GOES-14) GOES-14 Lat,Lon NOAA-20 Lat,Lon Distance(km) Time Diff (sec)
1 07/06/2019 20:27:00 0.15,-104.78 -0.12,-105.87 124.36 80
2 07/07/2019 20:10:55 0.14,-104.79 0.88,-101.33 393.52 80
3 07/09/2019 08:30:02 -0.17,-104.63 0.28,-106.60 224.74 80
4 07/10/2019 08:13:57 -0.15,-104.64 -0.71,-102.06 293.21 80
5 07/11/2019 20:33:14 0.19,-104.83 -0.36,-107.39 291.64 80
6 07/12/2019 20:17:08 0.18,-104.84 0.63,-102.85 226.30 80
7 07/14/2019 08:36:15 -0.21,-104.68 0.58,-108.11 391.95 80
8 07/15/2019 08:20:10 -0.20,-104.69 -0.47,-103.59 125.95 80
9 07/16/2019 20:39:27 0.23,-104.87 -0.66,-108.90 459.02 80
10 07/17/2019 20:23:21 0.22,-104.88 0.34,-104.37 59.09 80




NCC Satellite Simultaneous Nadir Overpasses (SNOs) Prediction Service
